www.pogodaiklimat.ru

Погода и климат >> Архив погоды >> Шри Ланка >> Галле


ПОГОДА в Галле

  • Прогноз погоды в Галле
  • Монитор погоды в Галле

АРХИВ ПОГОДЫ в Галле

Время (UTC), дата Ветер
(напр.,м/с)
 
Видим.   Явления Облачность Т
(С)
Тd
(С)
f
(%)
Тe
(С)
Тes
(С)
Комфортность P
(гПа)
Po
(гПа)
Тmin
(С)
Tmax
(С)
R
(мм)
R24
(мм)
S
(см)
21 16.09 ЮЗ 15 15 км в посл. час ливневой дождь 9/8 540 м
[Cu med, cong Ac trans]
+26.5 +24.3 88 +37 +37 очень
душно
1008.0 1006.4 0.8
00 17.09 ЮЗ 5 18 км {ливн. осадки} 9/8 540 м
[Cu med, cong Ac trans]
+27.0 +24.9 88 +39 +39 очень
душно
1008.3 1006.7 0.5
03 17.09 ЮЗ 4 18 км слаб. ливневой дождь 10/8 480 м
[Cb cap Ac As]
+26.4 +24.4 89 +37 +37 очень
душно
1010.8 1009.2 +24.4 0.4
06 17.09 ЮЗ 4 20 км в посл. час ливневой дождь 10/8 480 м
[Cb cap Ac As]
+27.0 +25.0 89 +39 +40 очень
душно
1009.4 1007.8 0.0
09 17.09 З 12 20 км 9/6 540 м
[Cb cap Ac As Ci fib]
+27.8 +24.6 83 +39 +39 очень
душно
1007.3 1005.7
15 17.09 З 6 20 км 5/3 540 м
[Cu hum Ci fib]
+28.0 +25.2 85 +41 +41 опасность
перегрева
1009.3 1007.7
18 17.09 ЮЗ 3 20 км 6/3 540 м
[Cu hum Ac trans Ci fib]
+27.8 +24.6 83 +39 +39 очень
душно
1009.5 1007.9
21 17.09 ЮЗ 5 20 км 8/6 540 м
[Cu med, cong Ci fib]
+27.6 +25.3 87 +40 +40 очень
душно
1007.7 1006.1
00 18.09 ЮЗ 6 20 км 9/6 540 м
[Cu med, cong Ac As Ci fib]
+27.8 +24.6 83 +39 +39 очень
душно
1008.1 1006.5
03 18.09 З 8 20 км 9/5 540 м
[Cu med, cong Ac trans Ci sp]
+28.4 +25.0 82 +41 +41 опасность
перегрева
1010.5 1008.9 +26.1
06 18.09 З 3 20 км 5/1 540 м
[Cu hum Ci fib]
+28.5 +24.9 81 +41 +56 опасность
перегрева
1010.4 1008.8
09 18.09 З 8 20 км 9/4 540 м
[Cu med, cong Ac trans Cs]
+29.5 +25.5 79 +43 +44 опасность
перегрева
1008.1 1006.5
12 18.09 З 10 20 км в посл. час ливневой дождь 8/5 540 м
[Cu med, cong Ac trans Ci sp]
+28.6 +25.5 83 +42 +42 опасность
перегрева
1008.4 1006.8 +29.6 2
15 18.09 ЮЗ 8 20 км 6/3 540 м
[Cu hum Ac trans Ci fib]
+28.0 +25.4 86 +41 +41 опасность
перегрева
1009.9 1008.3
18 18.09 ЮЗ 12 20 км 8/6 540 м
[Cu med, cong Ci fib]
+27.0 +24.9 88 +39 +39 очень
душно
1009.9 1008.3
21 18.09 ЮЗ 6 19 км {ливн. осадки} 9/8 540 м
[Cu med, cong Ac trans]
+28.0 +25.4 86 +41 +41 опасность
перегрева
1008.5 1006.9 0.8
00 19.09 ЮЗ 14 19 км {ливн. осадки} 9/4 540 м
[Cu hum Ac trans Cs]
+27.4 +25.4 89 +40 +40 очень
душно
1008.7 1007.1
03 19.09 ЮЗ 8 20 км 9/6 500 м
[Cb cap Cs]
+27.6 +24.4 83 +39 +39 очень
душно
1010.9 1009.3 +25.9
06 19.09 ЮЗ 10 20 км 10/6 500 м
[Cu med, cong Ac As]
+27.6 +25.6 89 +41 +41 опасность
перегрева
1010.3 1008.7
09 19.09 З 5 20 км 10/3 540 м
[Cu med, cong Ac As]
+28.0 +25.4 86 +41 +43 опасность
перегрева
1008.5 1006.9
15 19.09 СЗ 3 20 км в посл. час ливневой дождь 10/8 500 м
[Cu med, cong Ac As]
+26.0 +25.3 96 +38 +38 очень
душно
1011.2 1009.6 16
18 19.09 З 6 10 км слаб. ливневой дождь 10/6 500 м
[Cu med, cong Ac As]
+24.8 +24.5 98 +35 +35 очень
душно
1011.6 1010.0 23
21 19.09 ЮЗ 18 20 км {ливн. осадки} 10/4 500 м
[Cu med, cong Ac As]
+26.7 +23.7 84 +37 +37 очень
душно
1009.7 1008.1 0.1
03 20.09 ЮЗ 6 20 км 9/4 540 м
[Cu med, cong Ac As]
+27.8 +24.6 83 +39 +40 очень
душно
1011.0 1009.4 +23.2
06 20.09 ЮЗ 6 20 км 9/3 540 м
[Cu med, cong Ac trans Cs]
+28.6 +25.2 82 +42 +45 опасность
перегрева
1010.3 1008.7
09 20.09 З 3 20 км в посл. час ливневой дождь 9/6 540 м
[Cu med, cong Ac trans]
+27.0 +25.0 89 +39 +42 очень
душно
1008.1 1006.5 0.0
12 20.09 С 4 19 км в посл. час ливневой дождь 10/6 540 м
[Cu med, cong Ac As]
+25.4 +23.9 91 +35 +35 очень
душно
1007.9 1006.3 +28.9 3
15 20.09 штиль 0 19 км {ливн. осадки} 9/4 540 м
[Cu med, cong Ac As]
+25.4 +24.5 95 +36 +36 очень
душно
1010.1 1008.5 9
21 20.09 З 10 18 км 9/9 540 м
[Cu med, cong]
+26.4 +24.4 89 +37 +37 очень
душно
1008.8 1007.2
00 21.09 З 6 15 км слаб. ливневой дождь 10/9 500 м
[Cb cap Ac trans]
+26.8 +24.8 89 +38 +38 очень
душно
1008.7 1007.1 1
03 21.09 З 6 15 км слаб. ливневой дождь 10/10 500 м
[Cb cap]
+26.4 +25.0 92 +38 +38 очень
душно
1010.5 1008.9 +24.6 4
06 21.09 З 5 20 км {ливн. осадки} 9/4 540 м
[Cu med, cong Ac trans Ci sp]
+28.0 +26.0 89 +42 +46 опасность
перегрева
1009.0 1007.4 0.0
09 21.09 З 6 20 км 9/6 540 м
[Cu med, cong Ac trans Ci sp]
+28.4 +25.3 83 +41 +43 опасность
перегрева
1006.9 1005.3
12 21.09 ЮЗ 5 20 км 8/5 540 м
[Cu hum Ac trans Ci sp]
+28.5 +25.7 85 +42 +42 опасность
перегрева
1006.9 1005.3 +28.9
15 21.09 З 11 20 км 4/4 540 м
[Cu hum]
+28.0 +25.9 88 +42 +42 опасность
перегрева
1009.3 1007.7
18 21.09 ЮЗ 13 18 км слаб. ливневой дождь 8/8 540 м
[Cb cap]
+27.0 +26.2 95 +41 +41 опасность
перегрева
1009.5 1007.9 1
21 21.09 ЮЗ 9 20 км {ливн. осадки} 8/8 540 м
[Cb cap]
+27.0 +25.6 92 +40 +40 очень
душно
1007.4 1005.8 0.0
00 22.09 ЮЗ 14 18 км слаб. ливневой дождь 10/8 500 м
[Cb cap Ac As]
+26.0 +25.7 98 +38 +38 очень
душно
1007.7 1006.1 3
03 22.09 С 3 20 км {ливн. осадки} 9/5 540 м
[Cb cap Ac trans Cs]
+26.4 +25.8 97 +39 +41 очень
душно
1009.9 1008.3 +25.4 6
09 22.09 СЗ 5 18 км слаб. ливневой дождь 10/5 540 м
[Cu hum Ac As]
+25.8 +25.3 97 +37 +38 очень
душно
1007.2 1005.6 37
12 22.09 З 7 10 км слаб. дождь 10/4 500 м
[Cu hum Ac As]
+26.3 +25.3 94 +38 +38 очень
душно
1008.1 1006.5 +27.2 5
15 22.09 З 9 10 км слаб. дождь 10/4 500 м
[Cu med, cong Ac As]
+26.6 +25.5 94 +39 +39 очень
душно
1009.9 1008.3 3
18 22.09 СЗ 10 10 км слаб. дождь 10/3 500 м
[Cu hum Ac As]
+27.4 +25.4 89 +40 +40 очень
душно
1009.1 1007.5 1
21 22.09 С 4 15 км {дождь} 10/1 500 м
[Cu hum Ac As]
+26.4 +25.1 93 +38 +38 очень
душно
1007.6 1006.0 0.0
03 23.09 В 5 10 км слаб. ливневой дождь 10/8 500 м
[Cu med, cong Ac As]
+26.4 +25.7 96 +39 +39 очень
душно
1010.3 1008.7 +24.9 0.9
06 23.09 З 9 300 м гроза, ливневой дождь 10/8 500 м
[Cb cap Ac As]
+24.6 +24.3 98 +34 +34 очень
душно
1010.3 1008.7 40
09 23.09 З 15 12 км слаб. ливневой дождь {гроза} 10/8 500 м
[Cu med, cong Ac As]
+25.7 +24.9 95 +36 +36 очень
душно
1007.9 1006.3 29
12 23.09 З 13 15 км слаб. ливневой дождь {гроза} 10/9 500 м
[Cb cap As op]
+26.2 +25.1 94 +38 +38 очень
душно
1008.3 1006.7 +26.9 9
15 23.09 З 5 15 км слаб. ливневой дождь 10/6 500 м
[Cu med, cong As op]
+26.5 +25.1 92 +38 +38 очень
душно
1010.9 1009.3 0.3
18 23.09 З 8 18 км {ливн. осадки} 10/5 540 м
[Cu med, cong As op]
+27.0 +25.6 92 +40 +40 очень
душно
1010.8 1009.2 0.1

 

Местоположение метеостанции Галле (Шри Ланка): широта 6.03 долгота 80.22 высота над уровнем моря 13 м.

В архиве по умолчанию представлена погода в Галле за последнюю неделю. Архивные данные за месяц целиком и за предыдущие месяцы, начиная с января 2011 года, Вы можете получить, выбрав интересующий диапазон дат из раскрывающегося списка и нажав кнопку "Ввод!".


*Определитесь, кто Вы:
робот инопланетянин человек

Внимание! Время в таблицах - всемирное. Для получения местного времени необходимо прибавить поправку, которая равна 6 ч.

Смотрите также архив погоды в соседних городах и на ближайших метеорологических станциях:

Погода в Ратнапуре (Шри Ланка) (75 км)
Погода в Ратмалане (Шри Ланка) (96 км)
Погода в Хамбантоте (Шри Ланка) (101 км)
Погода в Коломбо (Шри Ланка) (104 км)
Погода в Нувара Элия (Шри Ланка) (121 км)
Погода в Дияталаве (Шри Ланка) (122 км)
Погода в Аэропорту Бандаранаайк (Шри Ланка) (132 км)
Погода в Бадулла (Шри Ланка) (140 км)
Погода в Канди (Шри Ланка) (152 км)
Погода в Курунегала (Шри Ланка) (161 км)

Пояснения к столбцам:

Ветер - указаны скорость ветра в м/с - средняя за 10 мин, порывы в срок и между сроками (в фигурных скобках) и направление, откуда дует ветер: С - северный, СВ - северо-восточный, В - восточный, ЮВ - юго-восточный, Ю - южный, ЮЗ - юго-западный, З - западный, СЗ - северо-западный.
Видимость - горизонтальная дальность видимости в метрах или километрах. При видимости от 1 до 10 км при отсутствии осадков обычно наблюдается дымка, при ухудшении видимости до 1 км и менее - туман. В сухую погоду видимость может ухудшаться дымом, пылью или мглою.
Явления - указаны атмосферные явления, наблюдавшиеся в срок или в последний час перед сроком; фигурными скобками обозначены явления, наблюдавшиеся между сроками (за 1-3 часа до срока); квадратными скобками обозначены град или гололедные отложения с указанием их диаметра в мм.
Облачность - указаны через наклонную черту общая и нижняя облачность в баллах и высота нижней границы облаков в метрах; квадратными скобками обозначены формы облаков: Ci - перистые, Cs - перисто-слоистые, Cc - перисто-кучевые, Ac - высококучевые, As - высокослоистые, Sc - слоисто-кучевые, Ns - слоисто-дождевые, Cu - кучевые, Cb - кучево-дождевые. Подробнее классификацию облаков см. в Атласе облаков (PDF).
T - Температура воздуха - температура, измеренная на высоте 2 м над землей.
Td - Температура точки росы - температура, при понижении до которой содержащийся в воздухе водяной пар достигнет насыщения.
f - Относительная влажность воздуха - влажноcть воздуха, измеренная на высоте 2 м над землей.
Te - Эффективная температура - температура, которую ощущает одетый по сезону человек в тени. Характеристика душности погоды. При расчете учитывается влияние влажности воздуха и скорости ветра на теплоощущения человека.
Tes - Эффективная температура на солнце - температура, которую ощущает человек, с поправкой на солнечный нагрев. Характеристика знойности погоды. Зависит от высоты солнца над горизонтом, облачности и скорости ветра. Ночью, в пасмурную погоду, а также при ветре 12 м/с и более поправка равна нулю.
P - Атмосферное давление - приведенное к уровню моря атмосферное давление.
Po - Атмосферное давление - измеренное на уровне метеостанции атмосферное давление.
Tmin - Минимальная температура - минимум температуры воздуха на высоте 2 м над землей.
Tmax - Максимальная температура - максимум температуры воздуха на высоте 2 м над землей.
R - Количество осадков - Количество выпавших осадков за период времени, мм. При наведении курсора мыши на число - период времени, за который выпало указанное количество осадков.
R24 - Количество осадков - Количество выпавших осадков за 24 часа, мм.
S - Снежный покров - Высота снежного покрова, см. При наведении курсора мыши на число - состояние снежного покрова и степень покрытия местности в баллах.